QPF
0.00 0.00 0.00 0.00 0.00 0.00 0.00 0.00 0.00 0.00 0.00 0.00 0.00 0.00 0.00 0.00 0.00 0.00 0.00 0.00 0.00 0.00 0.00 0.00 0.00 0.00 0.00 0.00 0.00 0.00 0.00 0.00 0.00 0.00 0.00 0.00 0.00 0.00 0.00 0.00 0.00 0.00 0.00
0.00 0.00 0.00 0.00 0.00 0.00 0.00 0.00 0.00 0.00 0.00 0.00 0.00 0.00 0.00 0.00 0.00 0.00 0.00 0.00 0.00 0.00 0.00 0.00 0.00 0.00 0.00 0.00 0.00 0.00 0.00 0.00 0.00 0.00 0.01 0.01 0.00 0.00 0.00 0.00 0.00 0.00 0.00
0.00 0.00 0.00 0.00 0.00 0.00 0.00 0.00 0.00 0.00 0.00 0.00 0.00 0.00 0.00 0.00 0.00 0.00 0.00 0.00 0.00 0.00 0.00 0.00 0.00 0.00 0.00 0.00 0.00 0.00 0.00 0.00 0.00 0.00 0.02 0.05 0.03 0.01 0.00 0.00 0.00 0.00 0.00
0.00 0.00 0.00 0.00 0.00 0.00 0.00 0.00 0.00 0.00 0.00 0.00 0.00 0.00 0.00 0.00 0.00 0.00 0.00 0.00 0.00 0.00 0.00 0.00 0.00 0.00 0.00 0.00 0.00 0.00 0.00 0.00 0.00 0.00 0.00 0.02 0.03 0.06 0.03 0.00 0.00 0.00 0.00
0.00 0.00 0.00 0.00 0.00 0.00 0.00 0.00 0.00 0.00 0.00 0.00 0.00 0.00 0.00 0.00 0.00 0.00 0.00 0.00 0.00 0.00 0.00 0.00 0.00 0.00 0.00 0.00 0.00 0.00 0.00 0.00 0.00 0.01 0.01 0.01 0.01 0.02 0.06 0.03 0.00 0.00 0.00
0.00 0.00 0.00 0.00 0.00 0.00 0.00 0.00 0.00 0.00 0.00 0.00 0.00 0.00 0.00 0.00 0.00 0.00 0.00 0.00 0.00 0.00 0.00 0.00 0.00 0.00 0.00 0.00 0.00 0.00 0.00 0.00 0.00 0.00 0.00 0.01 0.02 0.02 0.04 0.05 0.01 0.00 0.00
0.00 0.00 0.00 0.00 0.00 0.00 0.00 0.00 0.00 0.00 0.00 0.00 0.00 0.00 0.00 0.00 0.00 0.00 0.00 0.00 0.00 0.00 0.00 0.00 0.00 0.00 0.00 0.00 0.00 0.00 0.00 0.00 0.00 0.00 0.00 0.00 0.01 0.02 0.03 0.05 0.03 0.01 0.00
0.00 0.00 0.00 0.00 0.00 0.00 0.00 0.00 0.00 0.00 0.00 0.00 0.00 0.00 0.00 0.00 0.00 0.00 0.00 0.00 0.00 0.00 0.00 0.00 0.00 0.00 0.00 0.00 0.00 0.00 0.00 0.00 0.00 0.00 0.00 0.00 0.00 0.01 0.02 0.04 0.06 0.06 0.01
0.00 0.00 0.00 0.00 0.00 0.00 0.00 0.00 0.00 0.00 0.00 0.00 0.00 0.00 0.00 0.00 0.00 0.00 0.00 0.00 0.00 0.00 0.00 0.00 0.00 0.00 0.00 0.00 0.00 0.00 0.00 0.00 0.00 0.00 0.00 0.00 0.00 0.01 0.01 0.02 0.06 0.11 0.08
0.00 0.00 0.00 0.00 0.00 0.00 0.00 0.00 0.00 0.00 0.00 0.00 0.00 0.00 0.00 0.00 0.00 0.00 0.00 0.00 0.00 0.00 0.00 0.00 0.00 0.00 0.00 0.00 0.00 0.00 0.00 0.00 0.00 0.00 0.00 0.00 0.00 0.00 0.01 0.01 0.02 0.06 0.09
0.00 0.00 0.00 0.00 0.00 0.00 0.00 0.00 0.00 0.00 0.00 0.00 0.00 0.00 0.00 0.00 0.00 0.00 0.00 0.00 0.00 0.00 0.00 0.00 0.00 0.00 0.00 0.00 0.00 0.00 0.00 0.00 0.00 0.00 0.00 0.00 0.00 0.01 0.01 0.01 0.01 0.02 0.05
0.00 0.00 0.00 0.00 0.00 0.00 0.00 0.00 0.00 0.00 0.00 0.00 0.00 0.00 0.00 0.00 0.00 0.00 0.00 0.00 0.00 0.00 0.00 0.00 0.00 0.00 0.00 0.00 0.00 0.00 0.00 0.00 0.01 0.00 0.00 0.00 0.01 0.01 0.01 0.01 0.01 0.02 0.03
0.00 0.00 0.00 0.00 0.00 0.00 0.00 0.00 0.00 0.00 0.00 0.00 0.00 0.00 0.00 0.00 0.00 0.00 0.00 0.00 0.00 0.00 0.00 0.00 0.00 0.00 0.00 0.00 0.00 0.00 0.00 0.01 0.02 0.01 0.02 0.01 0.02 0.01 0.01 0.01 0.01 0.02 0.03
0.00 0.00 0.00 0.00 0.00 0.00 0.00 0.00 0.00 0.00 0.00 0.00 0.00 0.00 0.00 0.00 0.00 0.00 0.00 0.00 0.00 0.00 0.00 0.00 0.00 0.00 0.00 0.00 0.00 0.00 0.02 0.04 0.03 0.02 0.02 0.02 0.02 0.02 0.01 0.02 0.03 0.04 0.03
0.00 0.00 0.00 0.00 0.00 0.00 0.00 0.00 0.00 0.00 0.00 0.00 0.00 0.00 0.00 0.00 0.00 0.00 0.00 0.00 0.00 0.00 0.00 0.00 0.00 0.00 0.00 0.00 0.00 0.02 0.08 0.08 0.05 0.03 0.02 0.01 0.02 0.03 0.04 0.05 0.06 0.06 0.06
0.00 0.00 0.00 0.00 0.00 0.00 0.00 0.00 0.00 0.00 0.00 0.00 0.00 0.00 0.00 0.00 0.00 0.00 0.00 0.00 0.00 0.00 0.00 0.00 0.00 0.00 0.00 0.00 0.01 0.04 0.09 0.06 0.04 0.02 0.02 0.01 0.01 0.01 0.02 0.03 0.05 0.06 0.06
0.00 0.00 0.00 0.00 0.00 0.00 0.00 0.00 0.00 0.00 0.00 0.00 0.00 0.00 0.00 0.00 0.00 0.00 0.00 0.00 0.00 0.00 0.00 0.00 0.00 0.00 0.00 0.00 0.01 0.05 0.07 0.03 0.02 0.02 0.01 0.01 0.00 0.01 0.01 0.04 0.05 0.03 0.02
0.00 0.00 0.00 0.00 0.00 0.00 0.00 0.00 0.00 0.00 0.00 0.00 0.00 0.00 0.00 0.00 0.00 0.00 0.00 0.00 0.00 0.00 0.00 0.00 0.00 0.00 0.00 0.00 0.01 0.05 0.05 0.02 0.01 0.01 0.01 0.01 0.00 0.01 0.07 0.14 0.06 0.01 0.00
0.00 0.00 0.00 0.00 0.00 0.00 0.00 0.00 0.00 0.00 0.00 0.00 0.00 0.00 0.00 0.00 0.00 0.00 0.00 0.00 0.00 0.00 0.00 0.00 0.00 0.00 0.00 0.00 0.01 0.05 0.04 0.02 0.01 0.00 0.00 0.01 0.01 0.03 0.10 0.08 0.02 0.00 0.01
0.00 0.00 0.00 0.00 0.00 0.00 0.00 0.00 0.00 0.00 0.00 0.00 0.00 0.00 0.00 0.00 0.00 0.00 0.00 0.00 0.00 0.00 0.00 0.00 0.00 0.00 0.00 0.00 0.01 0.04 0.04 0.03 0.01 0.00 0.00 0.00 0.02 0.06 0.07 0.03 0.01 0.02 0.03
0.00 0.00 0.00 0.00 0.00 0.00 0.00 0.00 0.00 0.00 0.00 0.00 0.00 0.00 0.00 0.00 0.00 0.00 0.00 0.00 0.00 0.00 0.00 0.00 0.00 0.00 0.00 0.00 0.00 0.03 0.04 0.06 0.03 0.00 0.00 0.00 0.03 0.05 0.03 0.02 0.02 0.04 0.04
0.00 0.00 0.00 0.00 0.00 0.00 0.00 0.00 0.00 0.00 0.00 0.00 0.00 0.00 0.00 0.00 0.00 0.01 0.00 0.00 0.00 0.00 0.00 0.00 0.00 0.00 0.00 0.00 0.00 0.02 0.03 0.03 0.02 0.00 0.00 0.01 0.03 0.02 0.01 0.01 0.02 0.02 0.01
0.00 0.00 0.00 0.00 0.00 0.00 0.00 0.00 0.00 0.00 0.00 0.00 0.00 0.00 0.01 0.01 0.01 0.01 0.01 0.00 0.00 0.00 0.00 0.00 0.00 0.00 0.00 0.00 0.00 0.01 0.02 0.02 0.01 0.00 0.01 0.01 0.01 0.00 0.00 0.01 0.01 0.00 0.00
0.00 0.00 0.00 0.00 0.00 0.00 0.00 0.00 0.00 0.00 0.00 0.00 0.00 0.01 0.01 0.01 0.01 0.01 0.01 0.01 0.00 0.00 0.00 0.00 0.00 0.00 0.00 0.00 0.01 0.01 0.01 0.01 0.01 0.01 0.00 0.00 0.00 0.00 0.00 0.00 0.00 0.00 0.01
0.00 0.00 0.00 0.00 0.00 0.00 0.00 0.00 0.00 0.00 0.00 0.00 0.01 0.01 0.01 0.01 0.01 0.01 0.01 0.01 0.00 0.00 0.00 0.00 0.00 0.00 0.00 0.00 0.01 0.01 0.01 0.01 0.01 0.01 0.00 0.00 0.00 0.00 0.00 0.00 0.00 0.00 0.00
0.00 0.00 0.00 0.00 0.00 0.00 0.00 0.00 0.00 0.00 0.00 0.01 0.01 0.01 0.02 0.02 0.02 0.02 0.01 0.01 0.01 0.00 0.00 0.00 0.00 0.00 0.00 0.00 0.00 0.01 0.01 0.01 0.01 0.00 0.00 0.00 0.00 0.00 0.01 0.01 0.01 0.00 0.01
MSLP
1023.70 1024.04 1024.41 1024.82 1025.26 1025.74 1026.25 1026.80 1027.38 1027.96 1028.52 1029.05 1029.50 1029.88 1030.16 1030.35 1030.45 1030.49 1030.49 1030.45 1030.39 1030.33 1030.27 1030.21 1030.13 1030.03 1029.91 1029.75 1029.54 1029.27 1028.94 1028.53 1028.05 1027.49 1026.85 1026.16 1025.41 1024.63 1023.85 1023.06 1022.30 1021.55 1020.81
1022.53 1022.93 1023.37 1023.82 1024.30 1024.80 1025.34 1025.92 1026.54 1027.18 1027.83 1028.46 1029.02 1029.48 1029.83 1030.06 1030.18 1030.19 1030.15 1030.07 1029.98 1029.90 1029.84 1029.79 1029.75 1029.69 1029.60 1029.46 1029.26 1028.99 1028.64 1028.22 1027.73 1027.17 1026.54 1025.85 1025.10 1024.31 1023.49 1022.65 1021.81 1020.98 1020.16
1021.20 1021.68 1022.20 1022.74 1023.27 1023.82 1024.40 1025.01 1025.68 1026.39 1027.12 1027.83 1028.48 1029.03 1029.45 1029.71 1029.84 1029.85 1029.77 1029.66 1029.54 1029.45 1029.39 1029.36 1029.34 1029.31 1029.24 1029.11 1028.91 1028.64 1028.30 1027.88 1027.41 1026.87 1026.28 1025.62 1024.90 1024.12 1023.29 1022.41 1021.51 1020.59 1019.68
1019.77 1020.35 1020.98 1021.61 1022.23 1022.84 1023.46 1024.11 1024.81 1025.57 1026.35 1027.13 1027.85 1028.47 1028.94 1029.25 1029.40 1029.41 1029.33 1029.21 1029.08 1028.98 1028.92 1028.90 1028.89 1028.86 1028.80 1028.68 1028.48 1028.21 1027.87 1027.47 1027.03 1026.55 1026.02 1025.43 1024.77 1024.04 1023.22 1022.32 1021.37 1020.38 1019.37
1018.36 1019.04 1019.78 1020.51 1021.21 1021.88 1022.54 1023.21 1023.94 1024.71 1025.53 1026.35 1027.12 1027.79 1028.31 1028.66 1028.85 1028.88 1028.81 1028.69 1028.57 1028.47 1028.41 1028.39 1028.38 1028.36 1028.29 1028.16 1027.95 1027.68 1027.34 1026.97 1026.58 1026.16 1025.71 1025.20 1024.63 1023.96 1023.18 1022.29 1021.31 1020.26 1019.18
1017.06 1017.84 1018.68 1019.50 1020.27 1020.98 1021.66 1022.34 1023.06 1023.83 1024.65 1025.48 1026.27 1026.98 1027.55 1027.95 1028.18 1028.25 1028.22 1028.13 1028.02 1027.93 1027.87 1027.85 1027.83 1027.80 1027.71 1027.56 1027.33 1027.05 1026.72 1026.38 1026.02 1025.67 1025.29 1024.88 1024.39 1023.80 1023.08 1022.22 1021.24 1020.17 1019.04
1015.94 1016.80 1017.71 1018.60 1019.42 1020.16 1020.84 1021.50 1022.19 1022.94 1023.73 1024.55 1025.35 1026.08 1026.69 1027.14 1027.42 1027.55 1027.57 1027.52 1027.44 1027.38 1027.33 1027.30 1027.27 1027.21 1027.09 1026.90 1026.65 1026.34 1026.01 1025.67 1025.35 1025.04 1024.73 1024.39 1023.98 1023.47 1022.81 1022.00 1021.05 1019.98 1018.83
1015.04 1015.94 1016.90 1017.83 1018.68 1019.42 1020.08 1020.71 1021.36 1022.06 1022.81 1023.61 1024.40 1025.14 1025.78 1026.28 1026.62 1026.81 1026.89 1026.89 1026.86 1026.81 1026.78 1026.74 1026.69 1026.60 1026.44 1026.21 1025.92 1025.58 1025.22 1024.87 1024.54 1024.25 1023.97 1023.68 1023.34 1022.89 1022.29 1021.54 1020.64 1019.61 1018.49
1014.33 1015.25 1016.23 1017.17 1018.01 1018.73 1019.37 1019.96 1020.56 1021.21 1021.92 1022.68 1023.46 1024.20 1024.87 1025.41 1025.80 1026.06 1026.20 1026.26 1026.27 1026.25 1026.23 1026.18 1026.11 1025.98 1025.78 1025.50 1025.16 1024.77 1024.36 1023.97 1023.62 1023.31 1023.04 1022.76 1022.44 1022.03 1021.50 1020.81 1019.98 1019.02 1017.97
1013.75 1014.66 1015.63 1016.55 1017.37 1018.07 1018.68 1019.24 1019.80 1020.40 1021.07 1021.80 1022.56 1023.31 1023.99 1024.56 1025.00 1025.32 1025.51 1025.62 1025.66 1025.67 1025.65 1025.59 1025.49 1025.33 1025.08 1024.76 1024.36 1023.91 1023.45 1023.01 1022.60 1022.25 1021.94 1021.64 1021.32 1020.94 1020.45 1019.82 1019.07 1018.21 1017.26
1013.24 1014.11 1015.03 1015.91 1016.70 1017.38 1017.96 1018.50 1019.04 1019.62 1020.27 1020.99 1021.73 1022.47 1023.16 1023.76 1024.23 1024.58 1024.81 1024.95 1025.02 1025.05 1025.02 1024.96 1024.83 1024.63 1024.34 1023.97 1023.53 1023.02 1022.50 1021.99 1021.52 1021.10 1020.73 1020.40 1020.05 1019.67 1019.20 1018.64 1017.97 1017.21 1016.38
1012.71 1013.52 1014.38 1015.20 1015.95 1016.60 1017.17 1017.71 1018.26 1018.84 1019.50 1020.21 1020.95 1021.69 1022.38 1022.98 1023.47 1023.83 1024.09 1024.25 1024.33 1024.36 1024.33 1024.25 1024.10 1023.87 1023.55 1023.14 1022.65 1022.10 1021.52 1020.95 1020.41 1019.93 1019.49 1019.10 1018.71 1018.32 1017.87 1017.36 1016.77 1016.12 1015.41
1012.14 1012.85 1013.62 1014.38 1015.07 1015.70 1016.28 1016.84 1017.41 1018.03 1018.71 1019.44 1020.19 1020.92 1021.61 1022.21 1022.70 1023.07 1023.33 1023.49 1023.58 1023.60 1023.57 1023.47 1023.30 1023.05 1022.70 1022.27 1021.75 1021.16 1020.54 1019.92 1019.33 1018.78 1018.28 1017.83 1017.41 1016.99 1016.55 1016.08 1015.56 1015.00 1014.40
1011.49 1012.09 1012.76 1013.43 1014.07 1014.69 1015.28 1015.87 1016.49 1017.16 1017.88 1018.64 1019.40 1020.15 1020.83 1021.42 1021.91 1022.28 1022.54 1022.70 1022.78 1022.80 1022.76 1022.65 1022.46 1022.19 1021.83 1021.38 1020.84 1020.23 1019.59 1018.94 1018.30 1017.71 1017.17 1016.67 1016.21 1015.77 1015.33 1014.88 1014.41 1013.92 1013.42
1010.80 1011.27 1011.82 1012.39 1012.98 1013.58 1014.18 1014.82 1015.49 1016.22 1016.99 1017.78 1018.57 1019.32 1020.01 1020.60 1021.08 1021.45 1021.71 1021.88 1021.97 1021.99 1021.94 1021.82 1021.62 1021.34 1020.97 1020.50 1019.96 1019.34 1018.69 1018.02 1017.37 1016.75 1016.17 1015.64 1015.15 1014.69 1014.25 1013.81 1013.38 1012.93 1012.50
1010.10 1010.44 1010.85 1011.33 1011.85 1012.41 1013.03 1013.70 1014.43 1015.22 1016.03 1016.86 1017.68 1018.45 1019.14 1019.74 1020.23 1020.61 1020.89 1021.07 1021.18 1021.21 1021.16 1021.04 1020.84 1020.54 1020.16 1019.69 1019.14 1018.52 1017.86 1017.20 1016.54 1015.91 1015.33 1014.78 1014.27 1013.80 1013.34 1012.90 1012.47 1012.05 1011.64
1009.44 1009.64 1009.92 1010.29 1010.73 1011.27 1011.88 1012.58 1013.35 1014.17 1015.03 1015.89 1016.73 1017.51 1018.22 1018.83 1019.34 1019.75 1020.06 1020.29 1020.42 1020.48 1020.45 1020.34 1020.13 1019.83 1019.44 1018.95 1018.39 1017.78 1017.13 1016.47 1015.82 1015.20 1014.62 1014.07 1013.56 1013.07 1012.60 1012.15 1011.70 1011.27 1010.87
1008.85 1008.91 1009.07 1009.33 1009.70 1010.20 1010.80 1011.50 1012.29 1013.13 1014.01 1014.88 1015.73 1016.53 1017.25 1017.89 1018.44 1018.89 1019.25 1019.53 1019.72 1019.81 1019.82 1019.72 1019.51 1019.21 1018.80 1018.30 1017.73 1017.12 1016.47 1015.83 1015.20 1014.60 1014.04 1013.50 1012.99 1012.50 1012.01 1011.53 1011.06 1010.60 1010.16
1008.31 1008.26 1008.31 1008.49 1008.79 1009.24 1009.81 1010.50 1011.28 1012.13 1013.00 1013.87 1014.72 1015.52 1016.25 1016.92 1017.51 1018.02 1018.44 1018.78 1019.03 1019.18 1019.22 1019.14 1018.95 1018.64 1018.22 1017.71 1017.14 1016.52 1015.89 1015.27 1014.66 1014.09 1013.55 1013.04 1012.54 1012.05 1011.55 1011.04 1010.53 1010.02 1009.53
1007.82 1007.68 1007.65 1007.75 1008.00 1008.40 1008.94 1009.60 1010.35 1011.17 1012.02 1012.86 1013.69 1014.48 1015.23 1015.92 1016.54 1017.11 1017.60 1018.01 1018.32 1018.53 1018.61 1018.56 1018.38 1018.08 1017.66 1017.15 1016.57 1015.97 1015.35 1014.76 1014.19 1013.66 1013.16 1012.67 1012.19 1011.71 1011.20 1010.66 1010.11 1009.55 1008.99
1007.33 1007.13 1007.05 1007.10 1007.30 1007.66 1008.16 1008.78 1009.49 1010.26 1011.06 1011.87 1012.67 1013.44 1014.18 1014.88 1015.54 1016.15 1016.70 1017.17 1017.55 1017.81 1017.94 1017.92 1017.76 1017.47 1017.06 1016.56 1016.01 1015.42 1014.84 1014.28 1013.77 1013.28 1012.83 1012.38 1011.93 1011.46 1010.95 1010.39 1009.80 1009.18 1008.57
1006.82 1006.58 1006.47 1006.49 1006.66 1006.98 1007.44 1008.01 1008.67 1009.39 1010.14 1010.89 1011.65 1012.39 1013.11 1013.82 1014.50 1015.14 1015.73 1016.25 1016.67 1016.98 1017.15 1017.17 1017.05 1016.78 1016.40 1015.94 1015.42 1014.88 1014.35 1013.85 1013.39 1012.97 1012.56 1012.17 1011.75 1011.30 1010.79 1010.22 1009.60 1008.94 1008.26
1006.26 1006.02 1005.88 1005.88 1006.02 1006.31 1006.73 1007.25 1007.86 1008.52 1009.21 1009.92 1010.63 1011.34 1012.04 1012.74 1013.42 1014.08 1014.69 1015.24 1015.70 1016.04 1016.25 1016.31 1016.23 1016.01 1015.68 1015.27 1014.82 1014.34 1013.89 1013.46 1013.07 1012.71 1012.37 1012.02 1011.64 1011.22 1010.72 1010.15 1009.51 1008.82 1008.10
1005.69 1005.43 1005.27 1005.24 1005.36 1005.61 1005.98 1006.46 1007.02 1007.63 1008.27 1008.94 1009.61 1010.29 1010.97 1011.66 1012.34 1013.00 1013.62 1014.18 1014.65 1015.02 1015.26 1015.37 1015.34 1015.18 1014.92 1014.60 1014.22 1013.84 1013.47 1013.12 1012.81 1012.51 1012.23 1011.93 1011.59 1011.19 1010.71 1010.15 1009.51 1008.80 1008.06
1005.13 1004.84 1004.65 1004.59 1004.66 1004.87 1005.20 1005.63 1006.14 1006.71 1007.32 1007.95 1008.61 1009.27 1009.94 1010.61 1011.28 1011.93 1012.55 1013.11 1013.59 1013.97 1014.25 1014.39 1014.42 1014.34 1014.17 1013.94 1013.68 1013.39 1013.12 1012.86 1012.62 1012.38 1012.14 1011.88 1011.56 1011.18 1010.72 1010.18 1009.55 1008.85 1008.10
1004.62 1004.28 1004.04 1003.93 1003.94 1004.09 1004.37 1004.75 1005.22 1005.76 1006.35 1006.98 1007.63 1008.29 1008.96 1009.63 1010.29 1010.93 1011.54 1012.09 1012.57 1012.96 1013.26 1013.45 1013.55 1013.56 1013.49 1013.37 1013.21 1013.03 1012.85 1012.67 1012.49 1012.30 1012.09 1011.84 1011.54 1011.17 1010.73 1010.20 1009.60 1008.93 1008.20
Thickness
5650 5640 5632 5622 5611 5602 5593 5584 5574 5565 5554 5543 5531 5521 5511 5502 5493 5483 5473 5462 5451 5439 5427 5415 5400 5384 5366 5348 5328 5310 5294 5278 5262 5251 5246 5241 5231 5217 5205 5196 5189 5186 5185
5647 5641 5632 5622 5614 5605 5595 5585 5575 5564 5554 5543 5531 5519 5508 5497 5486 5475 5464 5453 5441 5429 5416 5402 5387 5370 5351 5332 5312 5294 5277 5263 5246 5230 5222 5221 5221 5213 5198 5185 5178 5174 5172
5656 5648 5638 5626 5616 5608 5598 5589 5576 5565 5553 5541 5527 5514 5501 5489 5478 5467 5456 5444 5431 5418 5404 5390 5374 5356 5337 5317 5299 5281 5264 5251 5237 5216 5199 5190 5190 5192 5193 5180 5172 5166 5163
5663 5655 5645 5633 5623 5614 5601 5589 5576 5564 5551 5538 5525 5511 5497 5483 5473 5460 5448 5435 5422 5408 5393 5378 5361 5343 5324 5305 5287 5271 5253 5238 5227 5213 5196 5178 5166 5160 5169 5176 5167 5160 5157
5667 5661 5654 5643 5630 5615 5601 5588 5575 5562 5549 5536 5523 5508 5494 5481 5467 5454 5440 5426 5413 5398 5383 5367 5350 5332 5314 5296 5278 5261 5245 5229 5215 5203 5192 5179 5166 5152 5144 5154 5162 5160 5156
5671 5664 5655 5642 5628 5612 5598 5585 5573 5560 5547 5533 5520 5506 5491 5476 5461 5447 5432 5419 5404 5390 5374 5358 5341 5323 5305 5288 5271 5255 5239 5224 5210 5196 5183 5172 5161 5153 5143 5141 5147 5151 5154
5671 5661 5650 5639 5626 5611 5598 5584 5572 5559 5545 5531 5518 5504 5489 5474 5458 5443 5428 5412 5397 5382 5367 5351 5334 5316 5299 5282 5266 5251 5236 5221 5207 5193 5181 5169 5157 5148 5141 5137 5140 5144 5150
5669 5662 5654 5642 5629 5613 5598 5584 5571 5559 5544 5530 5516 5502 5487 5471 5456 5441 5425 5409 5393 5378 5362 5345 5328 5311 5294 5278 5262 5247 5233 5219 5206 5193 5181 5169 5159 5149 5140 5135 5133 5139 5148
5669 5661 5651 5639 5627 5612 5599 5586 5572 5558 5543 5529 5514 5499 5484 5469 5453 5437 5421 5405 5389 5373 5358 5341 5324 5307 5291 5275 5260 5245 5231 5218 5205 5193 5182 5171 5162 5152 5144 5137 5132 5131 5139
5664 5656 5646 5636 5624 5611 5597 5582 5570 5557 5542 5527 5512 5498 5482 5467 5451 5434 5417 5401 5385 5369 5353 5337 5320 5304 5288 5273 5258 5244 5231 5218 5206 5195 5184 5174 5165 5156 5148 5142 5137 5134 5135
5665 5657 5647 5634 5619 5603 5590 5577 5565 5552 5538 5524 5509 5495 5480 5464 5447 5431 5415 5399 5382 5366 5349 5334 5318 5302 5287 5272 5257 5244 5231 5219 5209 5198 5188 5179 5170 5161 5153 5147 5143 5140 5139
5663 5654 5642 5626 5611 5598 5586 5574 5562 5549 5537 5522 5507 5492 5476 5460 5444 5428 5412 5396 5379 5363 5347 5331 5316 5300 5286 5271 5257 5244 5234 5221 5211 5202 5192 5184 5175 5167 5159 5153 5148 5146 5145
5656 5645 5631 5619 5608 5596 5583 5571 5560 5548 5534 5519 5504 5488 5473 5457 5441 5425 5409 5393 5377 5361 5345 5329 5314 5299 5285 5271 5258 5246 5235 5225 5215 5206 5197 5189 5180 5172 5165 5159 5155 5153 5153
5647 5636 5625 5615 5604 5593 5581 5570 5558 5545 5531 5516 5501 5487 5472 5456 5439 5423 5406 5391 5375 5359 5343 5328 5313 5299 5286 5272 5260 5249 5239 5229 5220 5211 5202 5193 5184 5178 5172 5166 5163 5161 5159
5640 5630 5621 5612 5600 5588 5578 5568 5556 5543 5529 5514 5499 5486 5470 5453 5436 5420 5404 5388 5372 5358 5342 5327 5313 5299 5286 5273 5263 5254 5245 5235 5226 5216 5206 5197 5190 5186 5181 5177 5172 5168 5166
5637 5629 5619 5608 5598 5588 5578 5566 5554 5540 5525 5511 5497 5482 5465 5449 5433 5418 5401 5385 5370 5356 5341 5326 5312 5298 5287 5277 5269 5261 5250 5239 5228 5218 5209 5200 5194 5189 5188 5184 5180 5177 5172
5632 5626 5618 5609 5601 5591 5579 5566 5553 5537 5521 5508 5494 5478 5462 5446 5431 5415 5399 5384 5369 5354 5339 5325 5311 5298 5287 5279 5271 5263 5252 5240 5229 5219 5210 5204 5198 5194 5188 5186 5183 5179 5176
5625 5621 5614 5606 5599 5589 5574 5561 5546 5531 5518 5504 5490 5475 5459 5444 5428 5412 5397 5382 5367 5353 5339 5325 5312 5299 5289 5281 5273 5265 5254 5241 5231 5222 5213 5206 5200 5197 5196 5193 5187 5182 5179
5618 5614 5608 5601 5592 5580 5567 5551 5537 5524 5511 5500 5487 5472 5457 5441 5425 5410 5396 5381 5366 5353 5339 5327 5313 5300 5289 5281 5274 5267 5254 5243 5234 5225 5217 5210 5205 5203 5203 5197 5190 5186 5185
5607 5603 5598 5590 5582 5572 5557 5543 5532 5519 5510 5501 5486 5470 5454 5439 5424 5410 5395 5380 5366 5353 5340 5327 5314 5301 5290 5281 5275 5268 5257 5247 5238 5228 5220 5214 5210 5209 5206 5199 5193 5191 5191
5596 5592 5585 5578 5573 5561 5546 5536 5528 5520 5512 5498 5481 5465 5450 5436 5422 5406 5392 5378 5365 5352 5339 5327 5315 5302 5291 5282 5274 5267 5258 5249 5240 5232 5224 5217 5215 5211 5207 5203 5197 5197 5196
5585 5580 5573 5570 5563 5549 5537 5531 5526 5520 5503 5488 5474 5459 5445 5431 5418 5403 5390 5376 5364 5350 5338 5325 5313 5302 5291 5281 5273 5267 5260 5253 5242 5234 5226 5221 5218 5212 5207 5203 5202 5201 5198
5573 5569 5562 5558 5551 5540 5532 5527 5524 5509 5494 5480 5467 5454 5440 5426 5415 5401 5388 5375 5362 5350 5339 5326 5314 5302 5292 5281 5274 5267 5260 5253 5244 5236 5230 5224 5218 5211 5205 5203 5203 5200 5196
5563 5557 5550 5546 5544 5535 5525 5523 5514 5501 5488 5475 5463 5449 5436 5423 5410 5399 5388 5375 5364 5351 5339 5327 5315 5303 5291 5281 5273 5265 5258 5252 5244 5235 5228 5223 5216 5210 5206 5203 5200 5198 5198
5550 5545 5539 5538 5538 5530 5521 5514 5504 5492 5480 5469 5458 5446 5434 5422 5409 5398 5388 5377 5366 5354 5341 5329 5316 5304 5291 5284 5279 5272 5264 5255 5247 5238 5229 5222 5215 5210 5207 5204 5202 5200 5200
5537 5533 5530 5528 5529 5523 5516 5507 5497 5486 5475 5464 5453 5442 5431 5419 5408 5396 5385 5376 5366 5356 5346 5334 5320 5308 5299 5291 5283 5274 5266 5258 5250 5238 5228 5221 5215 5211 5207 5204 5203 5202 5201